Regional Weather Roundup
Issued by NWS Midland/Odessa, TX

Skip options and go directly to product.
Home | Oldest Version | Next Version | Current Version | All | Text Only | Save Text | Print | Product List | Glossary On

Skip product version selection by date and time.   
072
ASUS44 KMAF 231601
RWRMAF
MIDLAND AREA WEATHER ROUNDUP
NATIONAL WEATHER SERVICE MIDLAND TX
1100 AM CDT TUE AUG 23 2016

...IN SOUTHWEST TEXAS AND SOUTHEAST NEW MEXICO...

CITY           SKY/WX    TMP DP  RH WIND       PRES   REMARKS
ALPINE         CLOUDY    73  63  68 S13       30.29S
ANDREWS        NOT AVBL
ARTESIA        SUNNY     81  63  54 S8        30.13S
BIG SPRING     MOSUNNY   78  70  77 S20       30.16R
CARLSBAD       SUNNY     80  63  55 SE5       30.11R
DRYDEN           N/A     78  72  81 SE8       30.14R
FORT STOCKTON  PTSUNNY   78  68  71 S10       30.15R
GUAD PASS      CLOUDY    72  63  73 SW20      30.27R
HOBBS          SUNNY     81  64  57 S12G21    30.16R
MARFA          CLOUDY   N/A N/A N/A S9        30.28R
MIDLAND AIRPK  MOSUNNY   78  68  70 S18G28    30.14S
MIDLAND INTL   PTSUNNY   77  68  73 S17G23    30.14R
ODESSA         CLOUDY    77  67  71 S18       30.15R
PECOS          PTSUNNY   83  65  53 S7        30.10R
PRESIDIO       NOT AVBL
SEMINOLE       PTSUNNY   80  64  58 S15       30.15R
SNYDER           N/A     77  70  78 S17G24    30.14R
WINK           PTSUNNY   81  66  60 SE15      30.10R
$$
...OTHER STATIONS IN TEXAS...

CITY           SKY/WX    TMP DP  RH WIND       PRES   REMARKS
ABILENE        MOSUNNY   82  69  64 S23G33    30.12R
AMARILLO       SUNNY     81  66  60 SW18      30.08R
AUSTIN         MOSUNNY   86  75  69 S17       30.14S
BROWNSVILLE    MOSUNNY   92  73  53 SE16G25   30.13R HX 100
CORPUS CHRISTI MOSUNNY   91  76  61 S16       30.13S HX 103
DALLAS FTW     PTSUNNY   87  72  60 S23       30.12S
DEL RIO        PTSUNNY   81  72  74 SE15G21   30.11R
EL PASO        MOSUNNY   78  65  63 S10       30.15S
HOUSTON INT    MOSUNNY   89  76  65 SW8       30.17S HX 100
LUBBOCK        MOSUNNY   81  66  60 S20       30.11R
SAN ANGELO     SUNNY     85  66  53 S16G28    30.13S
SAN ANTONIO    MOSUNNY   83  71  67 S13       30.16S
WACO           PTSUNNY   88  75  65 S18G24    30.14S
WICHITA FALLS  NOT AVBL
$$
...OTHER LOCATIONS IN NEW MEXICO...

CITY           SKY/WX    TMP DP  RH WIND       PRES   REMARKS
ALAMAGORDO     SUNNY     81  57  44 S13       30.18S
ALBUQUERQUE    MOSUNNY   68  55  63 CALM      30.25R
CANNON AFB     NOT AVBL
CLOVIS         SUNNY     75  64  69 SW13      30.14S
HOLLOMAN AFB   NOT AVBL
ROSWELL        SUNNY     80  62  54 SW10      30.12R
RUIDOSO          N/A     70  50  49 W7        30.35R
SANTA FE       SUNNY     66  51  58 S3        30.29R
TRUTH OR CONSE SUNNY     72  58  61 CALM      30.21R
TUCUMCARI      SUNNY     80  59  48 W17G24    30.10R
$$

USA.gov is the U.S. government's official web portal to all federal, state and local government web resources and services.